TimeEDT,TemperatureF,Dew PointF,Humidity,Sea Level PressureIn,VisibilityMPH,Wind Direction,Wind SpeedMPH,Gust SpeedMPH,PrecipitationIn,Events,Conditions,WindDirDegrees,DateUTC
12:15 AM,39.2,39.2,100,29.98,10.0,WNW,3.5,-,N/A,,Clear,300,2013-10-24 04:15:00
12:35 AM,40.1,39.6,98,29.98,10.0,Calm,Calm,-,N/A,,Clear,0,2013-10-24 04:35:00
12:55 AM,38.7,38.7,100,29.99,10.0,Calm,Calm,-,N/A,,Clear,0,2013-10-24 04:55:00
1:15 AM,37.6,37.6,100,29.99,10.0,Calm,Calm,-,N/A,,Clear,0,2013-10-24 05:15:00
1:35 AM,35.6,35.6,100,30.00,7.0,Calm,Calm,-,N/A,,Clear,0,2013-10-24 05:35:00
1:55 AM,34.7,34.7,100,30.00,10.0,Calm,Calm,-,N/A,,Clear,0,2013-10-24 05:55:00
2:15 AM,34.9,34.9,100,30.01,10.0,Calm,Calm,-,N/A,,Clear,0,2013-10-24 06:15:00
2:35 AM,33.8,33.8,100,30.02,7.0,Calm,Calm,-,N/A,,Clear,0,2013-10-24 06:35:00
2:55 AM,34.9,34.9,100,30.01,10.0,Calm,Calm,-,N/A,,Clear,0,2013-10-24 06:55:00
3:15 AM,32.9,32.9,100,30.01,10.0,Calm,Calm,-,N/A,,Clear,0,2013-10-24 07:15:00
3:35 AM,34.9,34.9,100,30.01,10.0,Calm,Calm,-,N/A,,Clear,0,2013-10-24 07:35:00
3:55 AM,33.3,33.3,100,30.01,10.0,Calm,Calm,-,N/A,,Clear,0,2013-10-24 07:55:00
4:15 AM,32.4,32.4,100,30.02,10.0,Calm,Calm,-,N/A,,Clear,0,2013-10-24 08:15:00
4:35 AM,32.2,32.2,100,30.02,7.0,Calm,Calm,-,N/A,,Clear,0,2013-10-24 08:35:00
4:55 AM,32.0,32.0,100,30.03,10.0,Calm,Calm,-,N/A,,Clear,0,2013-10-24 08:55:00
5:15 AM,31.8,31.8,100,30.03,10.0,Calm,Calm,-,N/A,,Clear,0,2013-10-24 09:15:00
5:35 AM,31.8,31.8,100,30.04,10.0,Calm,Calm,-,N/A,,Scattered Clouds,0,2013-10-24 09:35:00
5:55 AM,32.5,32.5,100,30.05,10.0,Calm,Calm,-,N/A,,Scattered Clouds,0,2013-10-24 09:55:00
6:15 AM,32.2,32.2,100,30.04,10.0,Calm,Calm,-,N/A,,Clear,0,2013-10-24 10:15:00
6:35 AM,32.0,32.0,100,30.06,10.0,Calm,Calm,-,N/A,,Clear,0,2013-10-24 10:35:00
6:55 AM,33.1,33.1,100,30.07,10.0,Calm,Calm,-,N/A,,Clear,0,2013-10-24 10:55:00
7:15 AM,34.2,34.2,100,30.07,10.0,Calm,Calm,-,N/A,,Clear,0,2013-10-24 11:15:00
7:35 AM,31.6,31.6,100,30.08,7.0,Calm,Calm,-,N/A,,Clear,0,2013-10-24 11:35:00
7:55 AM,31.5,31.5,100,30.08,10.0,Calm,Calm,-,N/A,,Clear,0,2013-10-24 11:55:00
8:15 AM,35.1,35.1,100,30.09,10.0,Calm,Calm,-,N/A,,Clear,0,2013-10-24 12:15:00
8:35 AM,36.1,36.1,100,30.10,10.0,Calm,Calm,-,N/A,,Clear,0,2013-10-24 12:35:00
8:55 AM,40.1,40.1,100,30.10,10.0,Calm,Calm,-,N/A,,Clear,0,2013-10-24 12:55:00
9:15 AM,42.8,39.4,88,30.11,10.0,Calm,Calm,-,N/A,,Clear,0,2013-10-24 13:15:00
9:35 AM,45.5,36.3,70,30.11,10.0,West,3.5,-,N/A,,Clear,270,2013-10-24 13:35:00
9:55 AM,47.3,34.9,62,30.11,10.0,WNW,6.9,-,N/A,,Clear,290,2013-10-24 13:55:00
10:15 AM,48.7,33.6,56,30.11,10.0,WNW,9.2,-,N/A,,Clear,290,2013-10-24 14:15:00
10:35 AM,49.6,32.7,52,30.11,10.0,West,5.8,-,N/A,,Clear,260,2013-10-24 14:35:00
10:55 AM,50.5,32.5,50,30.10,10.0,West,6.9,-,N/A,,Clear,270,2013-10-24 14:55:00
11:15 AM,51.1,32.0,48,30.10,10.0,West,8.1,-,N/A,,Clear,270,2013-10-24 15:15:00
11:35 AM,51.8,32.2,47,30.10,10.0,West,6.9,-,N/A,,Clear,270,2013-10-24 15:35:00
11:55 AM,52.7,31.6,45,30.10,10.0,West,9.2,-,N/A,,Mostly Cloudy,270,2013-10-24 15:55:00
12:15 PM,50.2,30.6,47,30.10,10.0,West,4.6,-,N/A,,Overcast,260,2013-10-24 16:15:00
12:35 PM,49.6,31.6,50,30.09,10.0,West,5.8,-,N/A,,Overcast,270,2013-10-24 16:35:00
12:55 PM,50.5,32.0,49,30.08,10.0,West,6.9,-,N/A,,Overcast,280,2013-10-24 16:55:00
1:15 PM,51.4,33.1,50,30.08,10.0,WSW,9.2,-,N/A,,Overcast,250,2013-10-24 17:15:00
1:35 PM,51.1,31.3,47,30.07,10.0,WNW,6.9,-,N/A,,Overcast,290,2013-10-24 17:35:00
1:55 PM,50.9,32.2,49,30.07,10.0,WNW,5.8,-,N/A,,Overcast,300,2013-10-24 17:55:00
2:15 PM,50.9,31.8,48,30.07,10.0,WNW,4.6,-,N/A,,Overcast,290,2013-10-24 18:15:00
2:35 PM,51.3,31.5,47,30.06,10.0,WNW,4.6,-,N/A,,Overcast,290,2013-10-24 18:35:00
2:55 PM,52.3,31.5,45,30.07,10.0,WNW,6.9,-,N/A,,Overcast,290,2013-10-24 18:55:00
3:15 PM,52.3,31.6,45,30.07,10.0,WNW,5.8,-,N/A,,Overcast,290,2013-10-24 19:15:00
3:35 PM,52.3,32.2,46,30.07,10.0,West,4.6,-,N/A,,Overcast,260,2013-10-24 19:35:00
3:55 PM,52.3,32.0,46,30.08,10.0,West,4.6,-,N/A,,Overcast,260,2013-10-24 19:55:00
4:15 PM,52.2,32.0,46,30.08,10.0,WNW,3.5,-,N/A,,Overcast,290,2013-10-24 20:15:00
4:35 PM,51.1,30.7,46,30.08,10.0,NW,6.9,-,N/A,,Overcast,310,2013-10-24 20:35:00
4:55 PM,50.2,33.1,52,30.09,10.0,NNW,4.6,-,N/A,,Overcast,330,2013-10-24 20:55:00
5:15 PM,50.0,30.9,48,30.09,10.0,North,4.6,-,N/A,,Overcast,350,2013-10-24 21:15:00
5:35 PM,50.5,30.6,46,30.10,10.0,Calm,Calm,-,N/A,,Overcast,0,2013-10-24 21:35:00
5:55 PM,49.1,34.3,57,30.10,10.0,Calm,Calm,-,N/A,,Overcast,0,2013-10-24 21:55:00
6:15 PM,48.2,35.8,62,30.11,10.0,Calm,Calm,-,N/A,,Mostly Cloudy,0,2013-10-24 22:15:00
6:35 PM,43.9,33.8,68,30.12,10.0,NNW,3.5,-,N/A,,Scattered Clouds,340,2013-10-24 22:35:00
6:55 PM,42.4,37.8,83,30.13,10.0,Calm,Calm,-,N/A,,Clear,0,2013-10-24 22:55:00
7:15 PM,40.3,34.7,80,30.13,10.0,Calm,Calm,-,N/A,,Clear,0,2013-10-24 23:15:00
7:35 PM,38.8,38.8,100,30.14,10.0,Calm,Calm,-,N/A,,Scattered Clouds,0,2013-10-24 23:35:00
7:55 PM,38.1,38.1,100,30.15,10.0,Calm,Calm,-,N/A,,Clear,0,2013-10-24 23:55:00
8:15 PM,39.2,37.8,95,30.15,10.0,Calm,Calm,-,N/A,,Scattered Clouds,0,2013-10-25 00:15:00
8:35 PM,35.6,35.6,100,30.15,10.0,NW,3.5,-,N/A,,Scattered Clouds,310,2013-10-25 00:35:00
8:55 PM,35.6,35.6,100,30.17,10.0,Calm,Calm,-,N/A,,Scattered Clouds,0,2013-10-25 00:55:00
9:15 PM,36.5,36.5,100,30.17,10.0,Calm,Calm,-,N/A,,Mostly Cloudy,0,2013-10-25 01:15:00
9:35 PM,36.1,36.1,100,30.18,10.0,Calm,Calm,-,N/A,,Overcast,0,2013-10-25 01:35:00
9:55 PM,38.7,38.3,99,30.19,10.0,Calm,Calm,-,N/A,,Overcast,0,2013-10-25 01:55:00
10:15 PM,36.7,36.7,100,30.19,10.0,Calm,Calm,-,N/A,,Overcast,0,2013-10-25 02:15:00
10:35 PM,37.6,37.6,100,30.19,10.0,Calm,Calm,-,N/A,,Mostly Cloudy,0,2013-10-25 02:35:00
10:55 PM,41.0,33.6,75,30.19,10.0,West,3.5,-,N/A,,Mostly Cloudy,280,2013-10-25 02:55:00
11:15 PM,39.2,34.7,84,30.19,10.0,West,3.5,-,N/A,,Scattered Clouds,280,2013-10-25 03:15:00
11:35 PM,39.4,33.8,80,30.20,10.0,Calm,Calm,-,N/A,,Clear,0,2013-10-25 03:35:00
11:55 PM,38.1,36.0,92,30.20,10.0,West,3.5,-,N/A,,Clear,270,2013-10-25 03:55:00